User: anonymous   Login
Location: Caltech
(34.1382°N, 118.1253°W)
Time: 17:39:11
(UTC-07:00)
Language:

HO-68 - Orbit

View from above orbital plane
View from above orbital plane
View from above satellite
View from above satellite

Ground track
Ground track

The orbit data is extracted from the following two-line orbital elements,

1 36122U 09072B   14295.72467154  .00000025  00000-0  17981-3 0   547
2 36122 100.2300 343.6217 0007156 304.4585 055.5929 13.16320138233210
Epoch (UTC): 22 October 2014 17:23:31
Eccentricity: 0.0007156
inclination: 100.2300°
perigee height: 1193 km
apogee height: 1204 km
right ascension of ascending node: 343.6217°
argument of perigee: 304.4585°
revolutions per day: 13.16320138
mean anomaly at epoch: 55.5929°
orbit number at epoch: 23321

The dashed part of the orbit path shows where the satellite is in the earth's shadow,  

DLR